DECAYED

STARLINK-11284, 61052 (Decayed)

Orbit data source: Space-Track

STARLINK-11284, 61052 was a payload satellite owned by SpaceX/Seattle (US) in LEO that was launched on Fri, 13 Sep 2024 UTC via an FALCON 9 launch vehicle from the Air Force Western Test Range (AFWTR). Payload-class satellites include a variety of spacecraft equipped with specific instruments for various scientific and technological missions. These include communications satellites like Starlink; space stations such as the ISS; scientific satellites like the Hubble; Earth observation satellites from companies like Planet Labs, Umbra, and HawkEye 360; GPS; miniature CubeSats for education and research; and military/defense satellites.

Not visible in the next 10 days
Identifier
61052, 2024-164C
Orbit
Decayed
Country
Flag of USUS
Related business
Manufacturer
SpaceX/Seattle
Mission
Decayed Commercial Communications
Bus & Motor
STARLINK V2MD, Unknown motor
Mass
960 kg wet, ~910 kg dry
Launch date (UTC)
2024-09-13 (2 years ago)
Launch vehicle
FALCON 9
Launch site
Air Force Western Test Range (AFWTR)
Object type
Payload
Rocket body
Debris
Shape & HBR
Box + 2 Pan, 18.1 m
Radar Cross Section
36.964 m², Large (>1 m²)

Expand to show TLE details & history
Last TLE update: 8 months ago

TLE from 8 months ago
0 STARLINK-11284
1 61052U 24164C   25281.87295287  .18319026  12200-4  34179-2 0  9992
2 61052  53.1355 338.2387 0005165 342.2944  17.7919 16.31375286 61594
Epoch: 2025-10-08T20:57Z
TLE epoch observation values (Epoch: 2025-10-08T20:57:03.127Z)
Latitude
-0.00007°
Longitude
6.23436°
Altitude
186.553 km
Speed
7.798 km/s
True Right ascension
22h 32m 57s
True Declination
0° 00' 00"
Sunlit
Object was in full shadow at epoch
Visualization orbit readout
Latitude
Unknown
Longitude
Unknown
Altitude
Unknown
Speed
Unknown
Apparent Right ascension
Unknown
Apparent Declination
Unknown
Sunlit
N/A
Visualization observer readout
Local Sidereal Time
07:17:31
Azimuth
Unknown
Elevation
Unknown
Doppler factor
Unknown
Orbital elements
Apogee altitude
192.51 km
Perigee altitude
185.726 km
Semi-major axis
6,567.255 km
Eccentricity
0.00052
Inclination
53.1355°
RAAN
338.2387°
Arg. of periapsis
342.2944°
True anomaly
17.81°
Mean anomaly
17.7919°
Eccentric anomaly
17.80095°
Mean motion
4.07819 °/min
Orbital period
88.27 mins
BSTAR
0.0034179
Loading maneuver chart data...
Computing Atmospheric mass density...
Loading historical data...
Loading historical data...
Loading historical data...
Loading historical data...
Loading historical data...
Loading historical data...
Loading historical data...

Documentation

Showing up to 5 results
|